sat.trackr.live / text

‹ back to catalog

STARLINK-37916

NORAD 69565 · 2026-135V

PAYLOAD ACTIVE UNKNOWN

§ Identity

Operator
Country
US
Launch date
2026-06-15
Launch site
AFWTR
Launch vehicle
Mass (kg)
RCS (m²)

Purposes: comms

External: N2YO · Heavens-Above · Gunter

§ Orbital elements

Epoch: 2026-09-19T01:33:01.617984Z

Period
93.91 min
Inclination
97.2830°
Eccentricity
0.0001703
Mean motion
15.33444522 rev/d
Perigee alt
464.4 km
Apogee alt
466.7 km
Semi-major
6,843.7 km
B*
1.9747e-4
RAAN
289.8238°
Arg perigee
95.2824°
Mean anomaly
264.8613°
Rev number
1,478

§ Raw data

STARLINK-379161 69565U 26135V   26262.06460206  .00006305  00000+0  19747-3 0  99942 69565  97.2830 289.8238 0001703  95.2824 264.8613 15.33444522 14786

JSON: /api/v1/satellites/69565 · /tle

For live sub-satellite position, see the globe view (requires WebGL).

§ Visibility from observer

Set your observer location to see the next 7 days of passes ≥ 10°. The values pass through the URL so the page stays shareable.

No JS? Fill the form by hand. The geolocation button needs JavaScript.